Flag for Canada Weather past 2 weeks in Hay River, Northwest Territories, Canada

Now
72 °F

Passing clouds.


Feels Like: 76 °F
Forecast: 49 / 60 °F
Wind: 9 mph from West

Location: Hay River

Current Time: May 30, 2015 at 11:33:22 AM

Latest Report: May 30, 2015 at 11:00 AM


Visibility: 15 mi

Pressure: 29.98 "Hg

Humidity: 25%

Dew point: 34 °F

Location of Hay RiverLocation

Historic Weather in Hay River — Graph

°F

Hay River temperature yesterday

Maximum temperature yesterday: 61 °F (at 1:00 PM)
Minimum temperature yesterday: 34 °F (at 5:00 AM)
Average temperature yesterday: 50 °F

Past Weeks' High & Low Weather Summary

 TemperatureHumidityPressure
High79 °F (May 18, 6:00 PM)100% (May 23, 5:00 AM)30.58 "Hg (May 23, 5:00 AM)
Low23 °F (May 16, 4:00 AM)15% (May 18, 2:00 PM)29.77 "Hg (May 25, 4:00 AM)
Average50 °F51%30.19 "Hg
* Reported May 15 10:00 AM — May 30 10:00 AM, Hay River, Weather by CustomWeather, © 2015

Note: Actual official high and low records may vary slightly from our data, if they occured in-between our weather recording intervals... More about our weather records

Advertising

Hay River weather history for previous 24 hours

 ConditionsComfort  
Time TempWeatherWind HumidityBarometerVisibility
10:00 AM
Sat, May 30
68 °FPassing clouds.12 mph30%30.00 "Hg15 mi
9:00 AM66 °FPassing clouds.15 mph30%30.02 "Hg15 mi
8:00 AM59 °FPassing clouds.9 mph39%30.03 "Hg15 mi
7:00 AM55 °FPassing clouds.7 mph44%30.04 "Hg15 mi
6:00 AM52 °FPassing clouds.7 mph47%30.05 "Hg15 mi
5:00 AM50 °FPassing clouds.8 mph50%30.06 "Hg15 mi
4:00 AM52 °FPassing clouds.7 mph47%30.06 "Hg15 mi
3:00 AM50 °FPassing clouds.6 mph50%30.07 "Hg15 mi
2:00 AM54 °FPassing clouds.7 mph44%30.07 "Hg15 mi
1:00 AM52 °FPassing clouds.8 mph47%30.08 "Hg15 mi
12:00 AM55 °FPassing clouds.9 mph41%30.09 "Hg15 mi
11:00 PM
Fri, May 29
57 °FPassing clouds.7 mph41%30.11 "Hg15 mi
10:00 PM55 °FPassing clouds.5 mph47%30.11 "Hg15 mi
9:00 PM57 °FPassing clouds.7 mph39%30.12 "Hg15 mi
8:00 PM57 °FPassing clouds.8 mph36%30.14 "Hg15 mi
7:00 PM57 °FPassing clouds.13 mph31%30.16 "Hg15 mi
6:00 PM57 °FScattered clouds.15 mph31%30.19 "Hg15 mi
5:00 PM57 °FPassing clouds.14 mph31%30.23 "Hg15 mi
4:00 PM57 °FPassing clouds.10 mph29%30.24 "Hg15 mi
3:00 PM59 °FPassing clouds.13 mph27%30.27 "Hg15 mi
2:00 PM57 °FScattered clouds.9 mph31%30.29 "Hg15 mi
1:00 PM61 °FScattered clouds.5 mph25%30.32 "Hg15 mi
12:00 PM59 °FScattered clouds.9 mph23%30.35 "Hg15 mi
11:00 AM57 °FScattered clouds.6 mph27%30.37 "Hg15 mi
Weather by CustomWeather, © 2015

See weather overviewHow to use our weather pages